THOR ABLESTAR DEB

Satellite information

Favourite Embed

Satellite Type and Status

DEBRISIN ORBIT

Key statistics

Satellite THOR ABLESTAR DEB at a glance.

Uptime

23385

Days in orbit

Revolutions

≈ 14.0

Per day

Orbit

LEO

Low Earth Orbit

Inclination

66.9

Latest

Satellite identification and parameters

Extended collection of information and parameters for THOR ABLESTAR DEB.

Object identification

Identified? True

Debris? True

Object name: THOR ABLESTAR DEB

International designator: 1961-015FU

Object number (NORAD): 530

Object ID (CCSDS): 530

Country: UNITED STATES OF AMERICA (US)

Current information (Y/N): Y

RCS size: SMALL

Orbital parameters

Period: 102.911 minutes

Inclination: 66.8798 deg

SMA: 7274.49 km

Apoapsis: 949.686 km

Periapsis: 843.025 km

RAAN: 101.4371 deg

Eccentricy: 0.0073312

Argument of periapsis: 56.2098 deg

Mean anomaly: 304.5939 deg

Mean motion: 13.9926158 rev/day

Mean motion (dot): 0.00000092 rev/day2

B* drag term: 0.00011382 1/REarth

Two-line elements (TLE)

Creation date: July 6, 2025, 6:05 p.m.

Reference frame: TEME

Reference center: EARTH

Epoch: July 6, 2025, 4:51 a.m. UTC

TLE line 0: 0 THOR ABLESTAR DEB

TLE line 1: 1 00530U 61015FU 25187.20219098 .00000092 00000-0 11382-3 0 9994

TLE line 2: 2 00530 66.8798 101.4371 0073312 56.2098 304.5939 13.99261580259213

Live tracking on map

Real-time ground track for satellite THOR ABLESTAR DEB.

In-orbit conjunctions

A list of the most updated potential collisions computed for object THOR ABLESTAR DEB.

Target Orbit TCA Probability of collision Miss distance Type
COSMOS 2251 DEB LEO 2025-06-18 08:45:35 0.0001911329 251.0 (m) DEBRIS
DMSP 5D-2 F13 DEB SSO 2025-01-03 18:08:31 0.0003491262 91.0 (m) DEBRIS
COSMOS 2251 DEB LEO 2024-11-10 14:29:41 0.0006180895 921.0 (m) DEBRIS

Associated space launch

THOR ABLESTAR DEB was lifted into orbit during the mission ‘Thor DM-21 Ablestar | Transit 4A & Injun-1 & Solrad 3’, on board a Thor DM-21 Ablestar space rocket.

The launch took place on June 29, 1961, 4:23 a.m. from Space Launch Complex 17B.

For more information about the launch, click the button.

Launch to space Thor DM-21 Ablestar | Transit 4A & Injun-1 & Solrad 3
Thor DM-21 Ablestar | Transit 4A & Injun-1 & Solrad 3

Agency: N/A

Status: Launch Successful

Launch date: June 29, 1961, 4:23 a.m. UTC

Rocket: Thor DM-21 Ablestar

Launch pad: Space Launch Complex 17B

Location: Cape Canaveral SFS, FL, USA

...

Latest news about this satellite

There are no fresh news available about this satellite. Check back as we update our databases every day.


Newsletter sign-up

Weekly statistics, charts and insights to help you stay on top of the space industry.